Location: Cazavet
(43.0017°N, 1.0431°E)
Time: 22:38:34
(UTC+00:00)

CBERS-1 - Pass Details

Date: 18 January 2026
Orbit: 765 x 772 km, 98.9° (Epoch: 11 February)

Event Time Altitude Azimuth Distance (km) Brightness Sun altitude
Rises 06:47:39 0° 6° (N) 3,242 7.1 -6.7°
Reaches altitude 10° 06:50:05 10° 358° (N) 2,312 6.3 -6.2°
Maximum altitude 06:54:45 38° 292° (WNW) 1,166 4.5 -5.5°
Drops below altitude 10° 06:59:23 10° 226° (SW) 2,301 6.3 -4.7°
Sets 07:01:49 0° 218° (SW) 3,224 7.1 -4.3°
